Location: Jackson Park
(37.2862°N, 79.9123°W)
Time: 14:50:34
(UTC+00:00)

Vanguard 2 Rocket - Pass Details

Date: 16 May 2026
Orbit: 553 x 3286 km, 32.9° (Epoch: 6 June)

Event Time Altitude Azimuth Distance (km) Brightness Sun altitude
Rises 18:40:13 0° 270° (W) 5,903 11.3 64.3°
Reaches altitude 10° 18:43:35 10° 269° (W) 5,184 11.2 63.7°
Maximum altitude 19:00:23 75° 188° (S) 3,267 11.3 61.0°
Drops below altitude 10° 19:20:23 10° 107° (ESE) 6,011 10.9 57.5°
Sets 19:24:39 0° 106° (ESE) 6,842 11.1 56.7°
